Regional Weather Roundup
Issued by NWS Lake Charles, LA

Home | Current Version | Previous Version | Text Only | Print | Product List | Glossary On
Versions: 1 2 3 4 5 6 7 8 9 10 11 12 13 14 15 16 17 18 19 20 21 22 23 24 25 26 27 28 29 30 31 32 33 34 35 36 37 38 39 40 41 42 43 44 45 46 47 48 49 50
000
ASUS44 KLCH 201910
RWRLCH
REGIONAL WEATHER ROUNDUP
NATIONAL WEATHER SERVICE LAKE CHARLES LA
100 PM CST TUE FEB 20 2018

Note: "fair" indicates few or no clouds below 12,000 feet with no
significant weather and/or obstructions to visibility.


ACROSS SOUTHEAST TEXAS

CITY           SKY/WX    TMP DP  RH WIND       PRES   REMARKS
BEAUMONT       CLOUDY    77  69  76 S16G31    30.03F
BEAUMONT CITY  CLOUDY    78  69  73 S17G26    30.04F
ORANGE         CLOUDY    77  71  84 S22G31    30.07F
JASPER         CLOUDY    80  68  67 S16G24    30.05F
$$

ACROSS CENTRAL LOUISIANA

CITY           SKY/WX    TMP DP  RH WIND       PRES   REMARKS
LEESVILLE      FAIR      79  67  68 S16G23    30.04F
FULLERTON      LGT RAIN  74  71  91 VRB6      30.03F FOG
ALEXANDRIA INT PTSUNNY   78  66  66 S18G33    30.05F
ESLER FIELD    PTSUNNY   83  64  52 S20G28    30.07F
DERIDDER       CLOUDY    79  65  63 S18       30.08F
OAKDALE        CLOUDY    80  67  66 S8G18     30.07F
OPELOUSAS      CLOUDY    81  66  60 S24G35    30.09F
$$

ACROSS SOUTHWEST AND SOUTH CENTRAL LOUISIANA

CITY           SKY/WX    TMP DP  RH WIND       PRES   REMARKS
SULPHUR        CLOUDY    78  70  76 S21G32    30.07F
LAKE CHARLES   CLOUDY    79  69  71 S18G26    30.06F
CHENNAULT INT  CLOUDY    79  70  73 S24       30.07F
CAMERON PHI    PTCLDY    72  70  94 SE15      30.07F
DEQUINCY       NOT AVBL
JENNINGS       MOCLDY    81  69  66 S22G28    30.08F
LAFAYETTE      PTSUNNY   80  69  69 S17G26    30.10F
NEW IBERIA     CLOUDY    80  68  66 S17       30.11F
ABBEVILLE      CLOUDY    79  72  80 SE14G25   30.11F
PATTERSON      CLOUDY    80  70  71 SE18G25   30.13F
SALT POINT       N/A     78  70  76 SE14G20   30.11F
$$

SELECTED SITES ACROSS THE REGION

CITY           SKY/WX    TMP DP  RH WIND       PRES   REMARKS
HOUSTON BUSH   CLOUDY    77  69  76 S18G25    29.99F
HOUSTON HOBBY  CLOUDY    76  72  87 S13G24    29.99F
GALVESTON      CLOUDY    74  68  81 SE17      30.01F HAZE
COLLEGE STAT   CLOUDY    77  67  71 S20G26    29.94F
CONROE         CLOUDY    76  69  79 S17       29.98F
HUNTSVILLE     PTSUNNY   78  65  63 SE10G24   29.97F
LUFKIN         FAIR      77  65  66 S20G25    29.99F
SHREVEPORT     PTSUNNY   79  64  60 S20G32    29.99F
MONROE         PTSUNNY   81  63  54 S14G26    30.05F
NATCHEZ MS     PTSUNNY   83  62  49 S15G30    30.10F
BATON ROUGE    PTSUNNY   84  62  47 SE17G25   30.11F
N.O. INTL ARPT PTSUNNY   82  71  69 S15G30    30.15F
SLIDELL        LGT RAIN  78  70  76 SE15G21   30.17F
$$

MARINE REPORTS

STATION/POSITION TIME  SKY/WX   TEMP    WIND        PRES    VSBY
                                AIR SEA DIR/SP/G
                 (UTC)          (F)     (DEG/KT/KT) (MB)    (MI)
BUOY 30 S HIGH I 1750            66 61  120/ 12/ 12 1017.3
WVE H/P(F/S)=  3/ 7

SEA RIM ST PARK  1900            70     140/ 13/ 16 1017.5F
PORT ARTHUR      1848            73 65  160/ 11/ 18 1017.5F
SABINE PASS N    1848            68 67  140/ 16/ 18 1019.0F
TEXAS POINT      NOT AVBL
CALCASIEU PASS   1848            70 67  150/ 11/ 15 1017.1F
LK CHARLES BEACH 1848            78 65              1017.6F
MARSH ISLAND     1800            70                   N/A
FRESH WATER LOCK 1848            75 72  120/ 13/ 19 1019.3F
AMERADA PASS     1848            78 55  150/  7/ 18 1020.3F
$$



USA.gov is the U.S. government's official web portal to all federal, state and local government web resources and services.